Location: Beekmeers
(50.8953°N, 3.6968°E)
Time: 06:50:05
(UTC+00:00)

SENTINEL 1B - Pass Details

Date: 14 October 2025
Orbit: 561 x 585 km, 98.1° (Epoch: 17 November)

Event Time Altitude Azimuth Distance (km) Brightness Sun altitude
Exits shadow 21:02:47 12° 305° (NW) 1,764 8.4 -37.8°
Drops below altitude 10° 21:03:25 10° 313° (NW) 1,924 8.6 -37.8°
Sets 21:06:12 0° 332° (NNW) 2,829 9.6 -38.2°
